Location: Antioch Baptist Church
(32.6696°N, 85.7327°W)
Time: 12:22:07
(UTC+00:00)

ATLAS CENTAUR R/B - Pass Details

Date: 14 July 2020
Orbit: 475 x 672 km, 64.7° (Epoch: 13 July)

Event Time Altitude Azimuth Distance (km) Brightness Sun altitude
Rises 03:02:49 0° 311° (NW) 2,523 6.2 -22.8°
Reaches altitude 10° 03:05:33 10° 289° (WNW) 1,642 4.6 -23.2°
Maximum altitude 03:07:51 16° 249° (WSW) 1,311 3.4 -23.5°
Enters shadow 03:08:23 16° 238° (WSW) 1,333 3.3 -23.6°
